Regional Weather Roundup
Issued by NWS

Home | Current Version | Previous Version | Graphics & Text | Print | Product List | Glossary On
Versions: 1 2 3 4 5 6 7 8 9 10 11 12 13 14 15 16 17 18 19 20 21 22 23 24 25 26 27 28 29 30 31 32 33 34 35 36 37 38 39 40 41 42 43 44 45 46 47 48 49 50
000
ASUS45 KCYS 010410
RWRWY

WYOMING REGIONAL WEATHER ROUNDUP
NATIONAL WEATHER SERVICE CHEYENNE WY
900 PM MST SAT JAN 31 2015

NOTE:  "FAIR" INDICATES FEW OR NO CLOUDS BELOW 12,000 FEET
WITH NO SIGNIFICANT WEATHER AND/OR OBSTRUCTIONS TO VISIBILITY.

WYZ001-010500-
YELLOWSTONE NATIONAL PARK

CITY           SKY/WX    TMP DP  RH WIND       PRES   REMARKS
LK YELLOWSTONE   N/A      9   5  84 CALM      30.06R
W YELLOWSTONE  NOT AVBL

$$
WYZ002>013-054>058-071-098>099-010500-
NORTHERN WYOMING

CITY           SKY/WX    TMP DP  RH WIND       PRES   REMARKS
JACKSON        FAIR      19  16  86 N10       30.07R WCI   8
CODY           CLOUDY    18  16  93 N14       30.12R WCI   4
GREYBULL       FAIR      23  13  65 NW18G28   30.11R WCI   9
WORLAND        FAIR      24  16  71 NW21      30.12R WCI   9
SHERIDAN       CLOUDY    17  11  77 NW22G32   30.19R WCI   0
BUFFALO          N/A     16  11  80 N35G45    30.07R WCI  -5
GILLETTE       CLOUDY    19  15  84 N21G29    30.08R WCI   3
HULETT           N/A    N/A N/A N/A MISG        N/A
NEWCASTLE      CLOUDY    27  21  80 NW18G25   30.02R WCI  13

$$
WYZ014>020-022>026-101>103-010500-
CENTRAL WYOMING

CITY           SKY/WX    TMP DP  RH WIND       PRES   REMARKS
BIG PINEY      FAIR      22  10  60 N12       30.02R WCI  10
PINEDALE       FAIR      16   9  73 W13       30.02R WCI   2
DUBOIS         FAIR      27  10  50 NW15G24   29.98R WCI  15
LANDER         CLOUDY    27  20  75 NE5       30.04S WCI  22
RIVERTON       CLOUDY    26  19  74 NE7       30.05R WCI  18
CASPER         FLURRIES  22  16  78 N14       30.05R WCI   9
DOUGLAS        CLOUDY    24  19  81 N14G23    30.03R WCI  12

$$
WYZ021-027>030-104>119-010500-
SOUTHERN WYOMING

CITY           SKY/WX    TMP DP  RH WIND       PRES   REMARKS
EVANSTON       FAIR      26  17  68 SW10      30.08R WCI  16
FORT BRIDGER   FAIR      31  17  55 W12G21    30.09R WCI  22
ROCK SPRINGS   FAIR      27   8  44 NE15      30.01R WCI  15
DIXON          FAIR      32  15  48 W16G24    29.96R WCI  21
RAWLINS        CLOUDY    24  20  84 N8        29.98R WCI  15
SARATOGA       FAIR      27  19  74 NW8       29.93R WCI  18
LARAMIE        CLOUDY    25  17  72 N17       29.89R WCI  12
CHEYENNE       CLOUDY    28  21  75 N26G37    29.87R WCI  13
TORRINGTON     CLOUDY    27  23  85 N10       29.96R WCI  17
PINE BLUFFS    CLOUDY    28  28 100 N9        29.90R WCI  20

$$


USA.gov is the U.S. government's official web portal to all federal, state and local government web resources and services.